Location: St. Louis
(38.6270°N, 90.1994°W)
Time: 09:50:09
(UTC-06:00)

Vanguard 1 - Pass Details

Date: 05 December 2021
Orbit: 652 x 3830 km, 34.2° (Epoch: 22 January)

Event Time Altitude Azimuth Distance (km) Brightness Sun altitude
Rises 21:05:03 0° 208° (SSW) 6,151 14.3 -51.1°
Reaches altitude 10° 21:09:01 10° 200° (SSW) 5,525 13.9 -51.8°
Enters shadow 21:14:19 24° 186° (S) 4,902 13.4 -52.8°
